owner,sensor,date,latitude,longitude,vertical_datum,sea_water_practical_salinity,qcFlag 
DISL,ioos:station:DISL:DISL:1,2009-11-01T06:30:00Z,30.2513,-88.0778,2.0,6.3,11111222 
DISL,ioos:station:DISL:DISL:1,2009-11-01T07:00:00Z,30.2513,-88.0778,1.9,6.2,11111222 
DISL,ioos:station:DISL:DISL:1,2009-11-01T07:30:00Z,30.2513,-88.0778,2.0,6.4,11111222 
DISL,ioos:station:DISL:DISL:1,2009-11-01T08:00:00Z,30.2513,-88.0778,1.9,6.4,11111222 
DISL,ioos:station:DISL:DISL:1,2009-11-01T08:30:00Z,30.2513,-88.0778,1.9,6.5,11111222 
DISL,ioos:station:DISL:DISL:1,2009-11-01T09:00:00Z,30.2513,-88.0778,1.9,6.5,11111222 
DISL,ioos:station:DISL:DISL:1,2009-11-01T09:30:00Z,30.2513,-88.0778,1.9,6.7,11111222 
DISL,ioos:station:DISL:DISL:1,2009-11-01T10:00:00Z,30.2513,-88.0778,1.9,6.7,11111222 
DISL,ioos:station:DISL:DISL:1,2009-11-01T10:30:00Z,30.2513,-88.0778,1.8,6.8,11111222 
DISL,ioos:station:DISL:DISL:1,2009-11-01T11:00:00Z,30.2513,-88.0778,1.8,6.8,11111222 
DISL,ioos:station:DISL:DISL:1,2009-11-01T11:30:00Z,30.2513,-88.0778,1.8,6.9,11111222 
DISL,ioos:station:DISL:DISL:1,2009-11-01T12:00:00Z,30.2513,-88.0778,1.8,7.4,11111222 
DISL,ioos:station:DISL:DISL:1,2009-11-01T12:30:00Z,30.2513,-88.0778,1.7,7.7,11111222 
DISL,ioos:station:DISL:DISL:1,2009-11-01T13:00:00Z,30.2513,-88.0778,1.8,7.9,11111222 
DISL,ioos:station:DISL:DISL:1,2009-11-01T13:30:00Z,30.2513,-88.0778,1.8,7.8,11111222 
DISL,ioos:station:DISL:DISL:1,2009-11-01T14:00:00Z,30.2513,-88.0778,1.8,8.0,11111222 
DISL,ioos:station:DISL:DISL:1,2009-11-01T14:30:00Z,30.2513,-88.0778,1.8,6.7,11111222 
DISL,ioos:station:DISL:DISL:1,2009-11-01T15:00:00Z,30.2513,-88.0778,1.9,6.7,11111222 
DISL,ioos:station:DISL:DISL:1,2009-11-01T15:30:00Z,30.2513,-88.0778,1.9,7.0,11111222 
DISL,ioos:station:DISL:DISL:1,2009-11-01T16:00:00Z,30.2513,-88.0778,1.9,7.1,11111222 
DISL,ioos:station:DISL:DISL:1,2009-11-01T16:30:00Z,30.2513,-88.0778,1.9,9.5,11111222 
DISL,ioos:station:DISL:DISL:1,2009-11-01T17:00:00Z,30.2513,-88.0778,1.9,10.2,11111222 
DISL,ioos:station:DISL:DISL:1,2009-11-01T17:30:00Z,30.2513,-88.0778,1.9,10.3,11111222 
DISL,ioos:station:DISL:DISL:1,2009-11-01T18:00:00Z,30.2513,-88.0778,1.9,10.0,11111222 
DISL,ioos:station:DISL:DISL:1,2009-11-01T18:30:00Z,30.2513,-88.0778,2.0,9.1,11111222 
DISL,ioos:station:DISL:DISL:1,2009-11-01T19:00:00Z,30.2513,-88.0778,1.9,8.9,11111222 
DISL,ioos:station:DISL:DISL:1,2009-11-01T19:30:00Z,30.2513,-88.0778,2.0,10.0,11111222 
DISL,ioos:station:DISL:DISL:1,2009-11-01T20:00:00Z,30.2513,-88.0778,2.0,11.7,11111222 
DISL,ioos:station:DISL:DISL:1,2009-11-01T20:30:00Z,30.2513,-88.0778,2.0,10.9,11111222 
DISL,ioos:station:DISL:DISL:1,2009-11-01T21:00:00Z,30.2513,-88.0778,2.1,13.7,11111222 
DISL,ioos:station:DISL:DISL:1,2009-11-01T21:30:00Z,30.2513,-88.0778,2.1,13.3,11111222 
DISL,ioos:station:DISL:DISL:1,2009-11-01T22:00:00Z,30.2513,-88.0778,2.1,12.7,11111222 
DISL,ioos:station:DISL:DISL:1,2009-11-01T22:30:00Z,30.2513,-88.0778,2.2,13.9,11111222 
DISL,ioos:station:DISL:DISL:1,2009-11-01T23:00:00Z,30.2513,-88.0778,2.1,16.8,11111222 
DISL,ioos:station:DISL:DISL:1,2009-11-01T23:30:00Z,30.2513,-88.0778,2.1,19.0,11111222 
DISL,ioos:station:DISL:DISL:1,2009-11-02T00:00:00Z,30.2513,-88.0778,7.05,20.4,1111122 
DISL,ioos:station:DISL:DISL:1,2009-11-02T00:30:00Z,30.2513,-88.0778,7.06,23.74,1111122 
DISL,ioos:station:DISL:DISL:1,2009-11-02T01:00:00Z,30.2513,-88.0778,7.06,23.39,1111122 
DISL,ioos:station:DISL:DISL:1,2009-11-02T01:30:00Z,30.2513,-88.0778,7.06,19.19,1111122 
DISL,ioos:station:DISL:DISL:1,2009-11-02T02:00:00Z,30.2513,-88.0778,7.13,17.17,1111122 
DISL,ioos:station:DISL:DISL:1,2009-11-02T02:30:00Z,30.2513,-88.0778,7.11,12.15,1111122 
DISL,ioos:station:DISL:DISL:1,2009-11-02T03:00:00Z,30.2513,-88.0778,7.3,10.03,1111122 
DISL,ioos:station:DISL:DISL:1,2009-11-02T03:30:00Z,30.2513,-88.0778,7.15,9.22,1111122 
DISL,ioos:station:DISL:DISL:1,2009-11-02T04:00:00Z,30.2513,-88.0778,7.11,7.23,1111122 
DISL,ioos:station:DISL:DISL:1,2009-11-02T04:30:00Z,30.2513,-88.0778,7.23,6.59,1111122 
DISL,ioos:station:DISL:DISL:1,2009-11-02T05:00:00Z,30.2513,-88.0778,6.922,6.36,1111122 
DISL,ioos:station:DISL:DISL:1,2009-11-02T05:30:00Z,30.2513,-88.0778,6.725,6.32,1111122 
DISL,ioos:station:DISL:DISL:1,2009-11-02T06:00:00Z,30.2513,-88.0778,6.958,6.54,1111122 
DISL,ioos:station:DISL:DISL:1,2009-11-02T06:30:00Z,30.2513,-88.0778,6.41,6.27,1111122 
DISL,ioos:station:DISL:DISL:1,2009-11-02T07:00:00Z,30.2513,-88.0778,6.241,6.2,1111122 
DISL,ioos:station:DISL:DISL:1,2009-11-02T07:30:00Z,30.2513,-88.0778,6.531,6.4,1111122 
DISL,ioos:station:DISL:DISL:1,2009-11-02T08:00:00Z,30.2513,-88.0778,6.354,6.41,1111122 
DISL,ioos:station:DISL:DISL:1,2009-11-02T08:30:00Z,30.2513,-88.0778,6.332,6.46,1111122 
DISL,ioos:station:DISL:DISL:1,2009-11-02T09:00:00Z,30.2513,-88.0778,6.221,6.5,1111122 
DISL,ioos:station:DISL:DISL:1,2009-11-02T09:30:00Z,30.2513,-88.0778,6.193,6.72,1111122 
DISL,ioos:station:DISL:DISL:1,2009-11-02T10:00:00Z,30.2513,-88.0778,6.119,6.73,1111122 
DISL,ioos:station:DISL:DISL:1,2009-11-02T10:30:00Z,30.2513,-88.0778,5.889,6.75,1111122 
DISL,ioos:station:DISL:DISL:1,2009-11-02T11:00:00Z,30.2513,-88.0778,5.992,6.84,1111122 
DISL,ioos:station:DISL:DISL:1,2009-11-02T11:30:00Z,30.2513,-88.0778,5.997,6.94,1111122 
DISL,ioos:station:DISL:DISL:1,2009-11-02T12:00:00Z,30.2513,-88.0778,5.991,7.39,1111122 
DISL,ioos:station:DISL:DISL:1,2009-11-02T12:30:00Z,30.2513,-88.0778,5.722,7.66,1111122 
DISL,ioos:station:DISL:DISL:1,2009-11-02T13:00:00Z,30.2513,-88.0778,5.932,7.93,1111122 
DISL,ioos:station:DISL:DISL:1,2009-11-02T13:30:00Z,30.2513,-88.0778,5.965,7.83,1111122 
DISL,ioos:station:DISL:DISL:1,2009-11-02T14:00:00Z,30.2513,-88.0778,5.914,7.95,1111122 
DISL,ioos:station:DISL:DISL:1,2009-11-02T14:30:00Z,30.2513,-88.0778,5.963,7.91,1111122 
DISL,ioos:station:DISL:DISL:1,2009-11-02T15:00:00Z,30.2513,-88.0778,6.003,7.86,1111122 
DISL,ioos:station:DISL:DISL:1,2009-11-02T15:30:00Z,30.2513,-88.0778,6.042,7.87,1111122 
DISL,ioos:station:DISL:DISL:1,2009-11-02T16:00:00Z,30.2513,-88.0778,6.049,7.9,1111122 
DISL,ioos:station:DISL:DISL:1,2009-11-02T16:30:00Z,30.2513,-88.0778,6.11,8.97,1111122 
DISL,ioos:station:DISL:DISL:1,2009-11-02T17:00:00Z,30.2513,-88.0778,6.15,9.67,1111122 
DISL,ioos:station:DISL:DISL:1,2009-11-02T17:30:00Z,30.2513,-88.0778,6.284,9.23,1111122 
DISL,ioos:station:DISL:DISL:1,2009-11-02T18:00:00Z,30.2513,-88.0778,6.322,8.18,1111122 
DISL,ioos:station:DISL:DISL:1,2009-11-02T18:30:00Z,30.2513,-88.0778,6.39,8.24,1111122 
DISL,ioos:station:DISL:DISL:1,2009-11-02T19:00:00Z,30.2513,-88.0778,6.492,7.65,1111122 
DISL,ioos:station:DISL:DISL:1,2009-11-02T19:30:00Z,30.2513,-88.0778,6.595,9.67,1111122 
DISL,ioos:station:DISL:DISL:1,2009-11-02T20:00:00Z,30.2513,-88.0778,6.656,11.97,1111122 
DISL,ioos:station:DISL:DISL:1,2009-11-02T20:30:00Z,30.2513,-88.0778,6.759,16.95,1111122 
DISL,ioos:station:DISL:DISL:1,2009-11-02T21:00:00Z,30.2513,-88.0778,6.828,21.31,1111122 
DISL,ioos:station:DISL:DISL:1,2009-11-02T21:30:00Z,30.2513,-88.0778,6.9,23.53,1111122 
DISL,ioos:station:DISL:DISL:1,2009-11-02T22:00:00Z,30.2513,-88.0778,6.976,25.11,1111122 
DISL,ioos:station:DISL:DISL:1,2009-11-02T22:30:00Z,30.2513,-88.0778,7.08,26.25,1111122 
DISL,ioos:station:DISL:DISL:1,2009-11-02T23:00:00Z,30.2513,-88.0778,7.18,26.88,1111122 
DISL,ioos:station:DISL:DISL:1,2009-11-02T23:30:00Z,30.2513,-88.0778,7.2,27.51,1111122 
DISL,ioos:station:DISL:DISL:1,2009-11-03T00:00:00Z,30.2513,-88.0778,7.31,25.05,1111122 
DISL,ioos:station:DISL:DISL:1,2009-11-03T00:30:00Z,30.2513,-88.0778,7.35,27.5,1111122 
DISL,ioos:station:DISL:DISL:1,2009-11-03T01:00:00Z,30.2513,-88.0778,7.44,28.31,1111122 
DISL,ioos:station:DISL:DISL:1,2009-11-03T01:30:00Z,30.2513,-88.0778,7.44,28.66,1111122 
DISL,ioos:station:DISL:DISL:1,2009-11-03T02:00:00Z,30.2513,-88.0778,7.5,25.93,1111122 
DISL,ioos:station:DISL:DISL:1,2009-11-03T02:30:00Z,30.2513,-88.0778,7.47,20.02,1111122 
DISL,ioos:station:DISL:DISL:1,2009-11-03T03:00:00Z,30.2513,-88.0778,7.5,9.89,1111122 
DISL,ioos:station:DISL:DISL:1,2009-11-03T03:30:00Z,30.2513,-88.0778,7.5,9.2,1111122 
DISL,ioos:station:DISL:DISL:1,2009-11-03T04:00:00Z,30.2513,-88.0778,7.47,8.94,1111122 
DISL,ioos:station:DISL:DISL:1,2009-11-03T04:30:00Z,30.2513,-88.0778,7.45,8.78,1111122 
DISL,ioos:station:DISL:DISL:1,2009-11-03T05:00:00Z,30.2513,-88.0778,7.38,8.15,1111122 
DISL,ioos:station:DISL:DISL:1,2009-11-03T05:30:00Z,30.2513,-88.0778,7.29,7.09,1111122 
DISL,ioos:station:DISL:DISL:1,2009-11-03T06:00:00Z,30.2513,-88.0778,7.18,7.0,1111122 
DISL,ioos:station:DISL:DISL:1,2009-11-03T06:30:00Z,30.2513,-88.0778,7.16,7.38,1111122 
DISL,ioos:station:DISL:DISL:1,2009-11-03T07:00:00Z,30.2513,-88.0778,7.02,7.64,1111122 
DISL,ioos:station:DISL:DISL:1,2009-11-03T07:30:00Z,30.2513,-88.0778,6.883,7.67,1111122 
DISL,ioos:station:DISL:DISL:1,2009-11-03T08:00:00Z,30.2513,-88.0778,6.781,7.86,1111122 
DISL,ioos:station:DISL:DISL:1,2009-11-03T08:30:00Z,30.2513,-88.0778,6.678,7.98,1111122 
DISL,ioos:station:DISL:DISL:1,2009-11-03T09:00:00Z,30.2513,-88.0778,6.427,7.64,1111122 
DISL,ioos:station:DISL:DISL:1,2009-11-03T09:30:00Z,30.2513,-88.0778,6.338,8.51,1111122 
DISL,ioos:station:DISL:DISL:1,2009-11-03T10:00:00Z,30.2513,-88.0778,6.271,9.13,1111122 
DISL,ioos:station:DISL:DISL:1,2009-11-03T10:30:00Z,30.2513,-88.0778,6.147,9.17,1111122 
DISL,ioos:station:DISL:DISL:1,2009-11-03T11:00:00Z,30.2513,-88.0778,6.07,9.34,1111122 
DISL,ioos:station:DISL:DISL:1,2009-11-03T11:30:00Z,30.2513,-88.0778,5.993,9.76,1111122 
DISL,ioos:station:DISL:DISL:1,2009-11-03T12:00:00Z,30.2513,-88.0778,5.918,9.87,1111122 
DISL,ioos:station:DISL:DISL:1,2009-11-03T12:30:00Z,30.2513,-88.0778,5.886,9.22,1111122 
DISL,ioos:station:DISL:DISL:1,2009-11-03T13:00:00Z,30.2513,-88.0778,5.829,9.36,1111122 
DISL,ioos:station:DISL:DISL:1,2009-11-03T13:30:00Z,30.2513,-88.0778,5.798,9.14,1111122 
DISL,ioos:station:DISL:DISL:1,2009-11-03T14:00:00Z,30.2513,-88.0778,5.851,9.05,1111122 
DISL,ioos:station:DISL:DISL:1,2009-11-03T14:30:00Z,30.2513,-88.0778,5.752,9.03,1111122 
DISL,ioos:station:DISL:DISL:1,2009-11-03T15:00:00Z,30.2513,-88.0778,5.779,9.02,1111122 
DISL,ioos:station:DISL:DISL:1,2009-11-03T15:30:00Z,30.2513,-88.0778,5.807,9.03,1111122 
DISL,ioos:station:DISL:DISL:1,2009-11-03T16:00:00Z,30.2513,-88.0778,5.846,8.82,1111122 
DISL,ioos:station:DISL:DISL:1,2009-11-03T16:30:00Z,30.2513,-88.0778,5.87,8.3,1111122 
DISL,ioos:station:DISL:DISL:1,2009-11-03T17:00:00Z,30.2513,-88.0778,5.889,8.77,1111122 
DISL,ioos:station:DISL:DISL:1,2009-11-03T17:30:00Z,30.2513,-88.0778,5.948,8.48,1111122 
DISL,ioos:station:DISL:DISL:1,2009-11-03T18:00:00Z,30.2513,-88.0778,5.976,8.64,1111122 
DISL,ioos:station:DISL:DISL:1,2009-11-03T18:30:00Z,30.2513,-88.0778,6.052,10.59,1111122 
DISL,ioos:station:DISL:DISL:1,2009-11-03T19:00:00Z,30.2513,-88.0778,6.1,10.02,1111122 
DISL,ioos:station:DISL:DISL:1,2009-11-03T19:30:00Z,30.2513,-88.0778,6.208,10.08,1111122 
DISL,ioos:station:DISL:DISL:1,2009-11-03T20:00:00Z,30.2513,-88.0778,6.279,9.21,1111122 
DISL,ioos:station:DISL:DISL:1,2009-11-03T20:30:00Z,30.2513,-88.0778,6.405,10.2,1111122 
DISL,ioos:station:DISL:DISL:1,2009-11-03T21:00:00Z,30.2513,-88.0778,6.472,13.09,1111122 
DISL,ioos:station:DISL:DISL:1,2009-11-03T21:30:00Z,30.2513,-88.0778,6.608,14.6,1111122 
DISL,ioos:station:DISL:DISL:1,2009-11-03T22:00:00Z,30.2513,-88.0778,6.699,14.86,1111122 
DISL,ioos:station:DISL:DISL:1,2009-11-03T22:30:00Z,30.2513,-88.0778,6.839,18.0,1111122 
DISL,ioos:station:DISL:DISL:1,2009-11-03T23:00:00Z,30.2513,-88.0778,6.932,19.94,1111122 
DISL,ioos:station:DISL:DISL:1,2009-11-03T23:30:00Z,30.2513,-88.0778,7.01,23.75,1111122 
DISL,ioos:station:DISL:DISL:1,2009-11-04T00:00:00Z,30.2513,-88.0778,7.13,24.93,1111122 
DISL,ioos:station:DISL:DISL:1,2009-11-04T00:30:00Z,30.2513,-88.0778,7.23,25.21,1111122 
DISL,ioos:station:DISL:DISL:1,2009-11-04T01:00:00Z,30.2513,-88.0778,7.37,25.78,1111122 
DISL,ioos:station:DISL:DISL:1,2009-11-04T01:30:00Z,30.2513,-88.0778,7.41,26.07,1111122 
DISL,ioos:station:DISL:DISL:1,2009-11-04T02:00:00Z,30.2513,-88.0778,7.43,26.35,1111122 
DISL,ioos:station:DISL:DISL:1,2009-11-04T02:30:00Z,30.2513,-88.0778,7.49,26.64,1111122 
DISL,ioos:station:DISL:DISL:1,2009-11-04T03:00:00Z,30.2513,-88.0778,7.5,26.14,1111122 
DISL,ioos:station:DISL:DISL:1,2009-11-04T03:30:00Z,30.2513,-88.0778,7.5,20.52,1111122 
DISL,ioos:station:DISL:DISL:1,2009-11-04T04:00:00Z,30.2513,-88.0778,7.52,15.71,1111122 
DISL,ioos:station:DISL:DISL:1,2009-11-04T04:30:00Z,30.2513,-88.0778,7.52,10.24,1111122 
DISL,ioos:station:DISL:DISL:1,2009-11-04T05:00:00Z,30.2513,-88.0778,7.56,9.42,1111122 
DISL,ioos:station:DISL:DISL:1,2009-11-04T05:30:00Z,30.2513,-88.0778,7.48,9.2,1111122 
DISL,ioos:station:DISL:DISL:1,2009-11-04T06:00:00Z,30.2513,-88.0778,7.41,9.1,1111122 
DISL,ioos:station:DISL:DISL:1,2009-11-04T06:30:00Z,30.2513,-88.0778,7.35,8.78,1111122 
DISL,ioos:station:DISL:DISL:1,2009-11-04T07:00:00Z,30.2513,-88.0778,7.27,7.95,1111122 
DISL,ioos:station:DISL:DISL:1,2009-11-04T07:30:00Z,30.2513,-88.0778,7.18,7.75,1111122 
DISL,ioos:station:DISL:DISL:1,2009-11-04T08:00:00Z,30.2513,-88.0778,6.806,7.8,1111122 
DISL,ioos:station:DISL:DISL:1,2009-11-04T08:30:00Z,30.2513,-88.0778,6.925,7.97,1111122 
DISL,ioos:station:DISL:DISL:1,2009-11-04T09:00:00Z,30.2513,-88.0778,6.787,8.33,1111122 
DISL,ioos:station:DISL:DISL:1,2009-11-04T09:30:00Z,30.2513,-88.0778,6.679,7.96,1111122 
DISL,ioos:station:DISL:DISL:1,2009-11-04T10:00:00Z,30.2513,-88.0778,6.583,8.52,1111122 
DISL,ioos:station:DISL:DISL:1,2009-11-04T10:30:00Z,30.2513,-88.0778,6.448,8.69,1111122 
DISL,ioos:station:DISL:DISL:1,2009-11-04T11:00:00Z,30.2513,-88.0778,6.359,8.91,1111122 
DISL,ioos:station:DISL:DISL:1,2009-11-04T11:30:00Z,30.2513,-88.0778,6.241,9.72,1111122 
DISL,ioos:station:DISL:DISL:1,2009-11-04T12:00:00Z,30.2513,-88.0778,6.177,10.77,1111122 
DISL,ioos:station:DISL:DISL:1,2009-11-04T12:30:00Z,30.2513,-88.0778,6.065,9.98,1111122 
DISL,ioos:station:DISL:DISL:1,2009-11-04T13:00:00Z,30.2513,-88.0778,5.91,11.02,1111122 
DISL,ioos:station:DISL:DISL:1,2009-11-04T13:30:00Z,30.2513,-88.0778,5.858,10.74,1111122 
DISL,ioos:station:DISL:DISL:1,2009-11-04T14:00:00Z,30.2513,-88.0778,5.816,10.44,1111122 
DISL,ioos:station:DISL:DISL:1,2009-11-04T14:30:00Z,30.2513,-88.0778,5.771,10.33,1111122 
DISL,ioos:station:DISL:DISL:1,2009-11-04T15:00:00Z,30.2513,-88.0778,5.716,10.13,1111122 
DISL,ioos:station:DISL:DISL:1,2009-11-04T15:30:00Z,30.2513,-88.0778,5.741,9.84,1111122 
DISL,ioos:station:DISL:DISL:1,2009-11-04T16:00:00Z,30.2513,-88.0778,5.763,9.42,1111122 
DISL,ioos:station:DISL:DISL:1,2009-11-04T16:30:00Z,30.2513,-88.0778,5.758,9.36,1111122 
DISL,ioos:station:DISL:DISL:1,2009-11-04T17:00:00Z,30.2513,-88.0778,5.814,9.07,1111122 
DISL,ioos:station:DISL:DISL:1,2009-11-04T17:30:00Z,30.2513,-88.0778,5.884,8.99,1111122 
DISL,ioos:station:DISL:DISL:1,2009-11-04T18:00:00Z,30.2513,-88.0778,5.913,10.0,1111122 
DISL,ioos:station:DISL:DISL:1,2009-11-04T18:30:00Z,30.2513,-88.0778,5.969,11.66,1111122 
DISL,ioos:station:DISL:DISL:1,2009-11-04T19:00:00Z,30.2513,-88.0778,6.077,11.13,1111122 
DISL,ioos:station:DISL:DISL:1,2009-11-04T19:30:00Z,30.2513,-88.0778,6.145,10.62,1111122 
DISL,ioos:station:DISL:DISL:1,2009-11-04T20:00:00Z,30.2513,-88.0778,6.216,9.93,1111122 
DISL,ioos:station:DISL:DISL:1,2009-11-04T20:30:00Z,30.2513,-88.0778,6.292,9.67,1111122 
DISL,ioos:station:DISL:DISL:1,2009-11-04T21:00:00Z,30.2513,-88.0778,6.382,10.41,1111122 
DISL,ioos:station:DISL:DISL:1,2009-11-04T21:30:00Z,30.2513,-88.0778,6.512,13.16,1111122 
DISL,ioos:station:DISL:DISL:1,2009-11-04T22:00:00Z,30.2513,-88.0778,6.595,14.9,1111122 
DISL,ioos:station:DISL:DISL:1,2009-11-04T22:30:00Z,30.2513,-88.0778,6.739,20.01,1111122 
DISL,ioos:station:DISL:DISL:1,2009-11-04T23:00:00Z,30.2513,-88.0778,6.855,23.83,1111122 
DISL,ioos:station:DISL:DISL:1,2009-11-04T23:30:00Z,30.2513,-88.0778,6.967,25.12,1111122 
DISL,ioos:station:DISL:DISL:1,2009-11-05T00:00:00Z,30.2513,-88.0778,7.11,24.22,1111122 
DISL,ioos:station:DISL:DISL:1,2009-11-05T00:30:00Z,30.2513,-88.0778,7.2,26.16,1111122 
DISL,ioos:station:DISL:DISL:1,2009-11-05T01:00:00Z,30.2513,-88.0778,7.35,26.53,1111122 
DISL,ioos:station:DISL:DISL:1,2009-11-05T01:30:00Z,30.2513,-88.0778,7.45,25.66,1111122 
DISL,ioos:station:DISL:DISL:1,2009-11-05T02:00:00Z,30.2513,-88.0778,7.53,25.59,1111122 
DISL,ioos:station:DISL:DISL:1,2009-11-05T02:30:00Z,30.2513,-88.0778,7.66,21.62,1111122 
DISL,ioos:station:DISL:DISL:1,2009-11-05T03:00:00Z,30.2513,-88.0778,7.66,20.73,1111122 
DISL,ioos:station:DISL:DISL:1,2009-11-05T03:30:00Z,30.2513,-88.0778,7.7,21.75,1111122 
DISL,ioos:station:DISL:DISL:1,2009-11-05T04:00:00Z,30.2513,-88.0778,7.73,16.06,1111122 
DISL,ioos:station:DISL:DISL:1,2009-11-05T04:30:00Z,30.2513,-88.0778,7.73,11.43,1111122 
DISL,ioos:station:DISL:DISL:1,2009-11-05T05:00:00Z,30.2513,-88.0778,7.74,11.06,1111122 
DISL,ioos:station:DISL:DISL:1,2009-11-05T05:30:00Z,30.2513,-88.0778,7.69,10.43,1111122 
DISL,ioos:station:DISL:DISL:1,2009-11-05T06:00:00Z,30.2513,-88.0778,7.64,10.46,1111122 
DISL,ioos:station:DISL:DISL:1,2009-11-05T06:30:00Z,30.2513,-88.0778,7.56,9.89,1111122 
DISL,ioos:station:DISL:DISL:1,2009-11-05T07:00:00Z,30.2513,-88.0778,7.5,9.94,1111122 
DISL,ioos:station:DISL:DISL:1,2009-11-05T07:30:00Z,30.2513,-88.0778,7.37,9.77,1111122 
DISL,ioos:station:DISL:DISL:1,2009-11-05T08:00:00Z,30.2513,-88.0778,7.2,9.72,1111122 
DISL,ioos:station:DISL:DISL:1,2009-11-05T08:30:00Z,30.2513,-88.0778,7.12,8.77,1111122 
DISL,ioos:station:DISL:DISL:1,2009-11-05T09:00:00Z,30.2513,-88.0778,6.958,8.38,1111122 
DISL,ioos:station:DISL:DISL:1,2009-11-05T09:30:00Z,30.2513,-88.0778,6.873,8.21,1111122 
DISL,ioos:station:DISL:DISL:1,2009-11-05T10:00:00Z,30.2513,-88.0778,6.729,8.43,1111122 
DISL,ioos:station:DISL:DISL:1,2009-11-05T10:30:00Z,30.2513,-88.0778,6.628,8.88,1111122 
DISL,ioos:station:DISL:DISL:1,2009-11-05T11:00:00Z,30.2513,-88.0778,6.52,9.44,1111122 
DISL,ioos:station:DISL:DISL:1,2009-11-05T11:30:00Z,30.2513,-88.0778,6.414,10.23,1111122 
DISL,ioos:station:DISL:DISL:1,2009-11-05T12:00:00Z,30.2513,-88.0778,6.087,10.03,1111122 
DISL,ioos:station:DISL:DISL:1,2009-11-05T12:30:00Z,30.2513,-88.0778,6.165,9.75,1111122 
DISL,ioos:station:DISL:DISL:1,2009-11-05T13:00:00Z,30.2513,-88.0778,6.087,9.71,1111122 
DISL,ioos:station:DISL:DISL:1,2009-11-05T13:30:00Z,30.2513,-88.0778,5.581,9.69,1111122 
DISL,ioos:station:DISL:DISL:1,2009-11-05T14:00:00Z,30.2513,-88.0778,5.865,9.7,1111122 
DISL,ioos:station:DISL:DISL:1,2009-11-05T14:30:00Z,30.2513,-88.0778,5.939,9.58,1111122 
DISL,ioos:station:DISL:DISL:1,2009-11-05T15:00:00Z,30.2513,-88.0778,5.709,9.35,1111122 
DISL,ioos:station:DISL:DISL:1,2009-11-05T15:30:00Z,30.2513,-88.0778,5.874,9.01,1111122 
DISL,ioos:station:DISL:DISL:1,2009-11-05T16:00:00Z,30.2513,-88.0778,5.662,8.27,1111122 
DISL,ioos:station:DISL:DISL:1,2009-11-05T16:30:00Z,30.2513,-88.0778,5.664,7.8,1111122 
DISL,ioos:station:DISL:DISL:1,2009-11-05T17:00:00Z,30.2513,-88.0778,5.677,7.63,1111122 
DISL,ioos:station:DISL:DISL:1,2009-11-05T17:30:00Z,30.2513,-88.0778,5.718,7.7,1111122 
DISL,ioos:station:DISL:DISL:1,2009-11-05T18:00:00Z,30.2513,-88.0778,5.773,7.79,1111122 
DISL,ioos:station:DISL:DISL:1,2009-11-05T18:30:00Z,30.2513,-88.0778,5.785,7.46,1111122 
DISL,ioos:station:DISL:DISL:1,2009-11-05T19:00:00Z,30.2513,-88.0778,5.82,7.79,1111122 
DISL,ioos:station:DISL:DISL:1,2009-11-05T19:30:00Z,30.2513,-88.0778,5.884,10.29,1111122 
DISL,ioos:station:DISL:DISL:1,2009-11-05T20:00:00Z,30.2513,-88.0778,5.919,10.54,1111122 
DISL,ioos:station:DISL:DISL:1,2009-11-05T20:30:00Z,30.2513,-88.0778,5.975,9.28,1111122 
DISL,ioos:station:DISL:DISL:1,2009-11-05T21:00:00Z,30.2513,-88.0778,6.076,9.08,1111122 
DISL,ioos:station:DISL:DISL:1,2009-11-05T21:30:00Z,30.2513,-88.0778,6.119,8.32,1111122 
DISL,ioos:station:DISL:DISL:1,2009-11-05T22:00:00Z,30.2513,-88.0778,6.273,8.75,1111122 
DISL,ioos:station:DISL:DISL:1,2009-11-05T22:30:00Z,30.2513,-88.0778,6.368,11.89,1111122 
DISL,ioos:station:DISL:DISL:1,2009-11-05T23:00:00Z,30.2513,-88.0778,6.503,12.45,1111122 
DISL,ioos:station:DISL:DISL:1,2009-11-05T23:30:00Z,30.2513,-88.0778,6.618,16.61,1111122 
DISL,ioos:station:DISL:DISL:1,2009-11-06T00:00:00Z,30.2513,-88.0778,6.702,17.22,1111122 
DISL,ioos:station:DISL:DISL:1,2009-11-06T00:30:00Z,30.2513,-88.0778,6.894,18.14,1111122 
DISL,ioos:station:DISL:DISL:1,2009-11-06T01:00:00Z,30.2513,-88.0778,7.01,22.7,1111122 
DISL,ioos:station:DISL:DISL:1,2009-11-06T01:30:00Z,30.2513,-88.0778,7.13,26.69,1111122 
DISL,ioos:station:DISL:DISL:1,2009-11-06T02:00:00Z,30.2513,-88.0778,7.22,26.18,1111122 
DISL,ioos:station:DISL:DISL:1,2009-11-06T02:30:00Z,30.2513,-88.0778,7.35,27.82,1111122 
DISL,ioos:station:DISL:DISL:1,2009-11-06T03:00:00Z,30.2513,-88.0778,7.44,28.03,1111122 
DISL,ioos:station:DISL:DISL:1,2009-11-06T03:30:00Z,30.2513,-88.0778,7.45,28.28,1111122 
DISL,ioos:station:DISL:DISL:1,2009-11-06T04:00:00Z,30.2513,-88.0778,7.4,28.33,1111122 
DISL,ioos:station:DISL:DISL:1,2009-11-06T04:30:00Z,30.2513,-88.0778,7.5,26.43,1111122 
DISL,ioos:station:DISL:DISL:1,2009-11-06T05:00:00Z,30.2513,-88.0778,7.57,19.37,1111122 
DISL,ioos:station:DISL:DISL:1,2009-11-06T05:30:00Z,30.2513,-88.0778,7.6,11.45,1111122 
DISL,ioos:station:DISL:DISL:1,2009-11-06T06:00:00Z,30.2513,-88.0778,7.64,10.83,1111122 
DISL,ioos:station:DISL:DISL:1,2009-11-06T06:30:00Z,30.2513,-88.0778,7.55,11.0,1111122 
DISL,ioos:station:DISL:DISL:1,2009-11-06T07:00:00Z,30.2513,-88.0778,7.46,10.32,1111122 
DISL,ioos:station:DISL:DISL:1,2009-11-06T07:30:00Z,30.2513,-88.0778,7.44,10.08,1111122 
DISL,ioos:station:DISL:DISL:1,2009-11-06T08:00:00Z,30.2513,-88.0778,7.32,10.05,1111122 
DISL,ioos:station:DISL:DISL:1,2009-11-06T08:30:00Z,30.2513,-88.0778,7.38,9.65,1111122 
DISL,ioos:station:DISL:DISL:1,2009-11-06T09:00:00Z,30.2513,-88.0778,7.15,8.04,1111122 
DISL,ioos:station:DISL:DISL:1,2009-11-06T09:30:00Z,30.2513,-88.0778,7.04,8.01,1111122 
DISL,ioos:station:DISL:DISL:1,2009-11-06T10:00:00Z,30.2513,-88.0778,6.902,7.89,1111122 
DISL,ioos:station:DISL:DISL:1,2009-11-06T10:30:00Z,30.2513,-88.0778,6.865,8.44,1111122 
DISL,ioos:station:DISL:DISL:1,2009-11-06T11:00:00Z,30.2513,-88.0778,6.631,8.63,1111122 
DISL,ioos:station:DISL:DISL:1,2009-11-06T11:30:00Z,30.2513,-88.0778,6.604,9.44,1111122 
DISL,ioos:station:DISL:DISL:1,2009-11-06T12:00:00Z,30.2513,-88.0778,6.364,9.67,1111122 
DISL,ioos:station:DISL:DISL:1,2009-11-06T12:30:00Z,30.2513,-88.0778,6.332,9.81,1111122 
DISL,ioos:station:DISL:DISL:1,2009-11-06T13:00:00Z,30.2513,-88.0778,6.319,10.16,1111122 
DISL,ioos:station:DISL:DISL:1,2009-11-06T13:30:00Z,30.2513,-88.0778,5.893,10.08,1111122 
DISL,ioos:station:DISL:DISL:1,2009-11-06T14:00:00Z,30.2513,-88.0778,5.975,10.78,1111122 
DISL,ioos:station:DISL:DISL:1,2009-11-06T14:30:00Z,30.2513,-88.0778,5.865,11.23,1111122 
DISL,ioos:station:DISL:DISL:1,2009-11-06T15:00:00Z,30.2513,-88.0778,5.738,11.56,1111122 
DISL,ioos:station:DISL:DISL:1,2009-11-06T15:30:00Z,30.2513,-88.0778,5.618,11.43,1111122 
DISL,ioos:station:DISL:DISL:1,2009-11-06T16:00:00Z,30.2513,-88.0778,5.558,11.21,1111122 
DISL,ioos:station:DISL:DISL:1,2009-11-06T16:30:00Z,30.2513,-88.0778,5.533,11.41,1111122 
DISL,ioos:station:DISL:DISL:1,2009-11-06T17:00:00Z,30.2513,-88.0778,5.52,10.85,1111122 
DISL,ioos:station:DISL:DISL:1,2009-11-06T17:30:00Z,30.2513,-88.0778,5.514,10.83,1111122 
DISL,ioos:station:DISL:DISL:1,2009-11-06T18:00:00Z,30.2513,-88.0778,5.532,10.98,1111122 
DISL,ioos:station:DISL:DISL:1,2009-11-06T18:30:00Z,30.2513,-88.0778,5.569,10.01,1111122 
DISL,ioos:station:DISL:DISL:1,2009-11-06T19:00:00Z,30.2513,-88.0778,5.568,9.98,1111122 
DISL,ioos:station:DISL:DISL:1,2009-11-06T19:30:00Z,30.2513,-88.0778,5.609,10.63,1111122 
DISL,ioos:station:DISL:DISL:1,2009-11-06T20:00:00Z,30.2513,-88.0778,5.667,11.48,1111122 
DISL,ioos:station:DISL:DISL:1,2009-11-06T20:30:00Z,30.2513,-88.0778,5.735,11.86,1111122 
DISL,ioos:station:DISL:DISL:1,2009-11-06T21:00:00Z,30.2513,-88.0778,5.807,11.38,1111122 
DISL,ioos:station:DISL:DISL:1,2009-11-06T21:30:00Z,30.2513,-88.0778,5.901,10.79,1111122 
DISL,ioos:station:DISL:DISL:1,2009-11-06T22:00:00Z,30.2513,-88.0778,5.989,10.31,1111122 